Regional Weather Roundup
Issued by NWS

Home | Current Version | Previous Version | Text Only | Print | Product List | Glossary Off
Versions: 1 2 3 4 5 6 7 8 9 10 11 12 13 14 15 16 17 18 19 20 21 22 23 24 25 26 27 28 29 30 31 32 33 34 35 36 37 38 39 40 41 42 43 44 45 46 47 48 49 50

000
ASUS43 KLSX 071807
RWRMO

WEATHER SUMMARY FOR MISSOURI
NATIONAL WEATHER SERVICE SPRINGFIELD MO
100 PM CDT TUE JUL 07 2015

NOTE: "FAIR" INDICATES FEW OR NO CLOUDS BELOW 12,000 FEET WITH NO
       SIGNIFICANT WEATHER AND/OR OBSTRUCTIONS TO VISIBILITY.
       CURRENT SKY AND/OR WEATHER CONDITIONS ARE NOT AVAILABLE FOR
       CHILLICOTHE AND FARMINGTON.

MOZ001>031-035>038-043-044-053-054-071900-
...NORTHERN AND WESTERN MISSOURI...

CITY           SKY/WX    TMP DP  RH WIND       PRES   REMARKS
KANSAS CTY INT CLOUDY    70  60  70 N12G23    30.08S HAZE
6HR MIN TEMP:  63; 6HR MAX TEMP:  71;

KANSAS C DTWN  PTSUNNY   73  60  63 N10       30.06F HAZE
6HR MIN TEMP:  65; 6HR MAX TEMP:  73; 6HR PCP: TRACE;

LEE`S SUMMIT   CLOUDY    71  59  65 NE15      30.07S
6HR MIN TEMP:  61; 6HR MAX TEMP:  71;

ST JOSEPH      CLOUDY    70  59  68 NE8       30.09F
6HR MIN TEMP:  62; 6HR MAX TEMP:  70;

CHILLICOTHE      N/A     73  60  63 N9        30.07F
6HR MIN TEMP:  65; 6HR MAX TEMP:  74;

KIRKSVILLE     MOSUNNY   73  59  61 NE13      30.07S HAZE
6HR MIN TEMP:  63; 6HR MAX TEMP:  73; 6HR PCP: TRACE;


$$
MOZ066>068-077>081-088>096-101>105-071900-
...SOUTHWEST MISSOURI...

CITY           SKY/WX    TMP DP  RH WIND       PRES   REMARKS
SPRINGFIELD    CLOUDY    75  71  87 S9        29.99S
6HR MIN TEMP:  73; 6HR MAX TEMP:  76; 6HR PCP:  0.02;

JOPLIN         CLOUDY    66  64  93 N7        30.03R FOG
6HR MIN TEMP:  65; 6HR MAX TEMP:  74; 6HR PCP: TRACE;


$$
MOZ032>034-039>042-045>050-055>058-069>072-071900-
...CENTRAL MISSOURI...

CITY           SKY/WX    TMP DP  RH WIND       PRES   REMARKS
COLUMBIA       CLOUDY    66  63  90 N10       30.03S FOG
6HR MIN TEMP:  65; 6HR MAX TEMP:  67; 6HR PCP:  0.02;

ROLLA          LGT RAIN  68  67  96 N10       29.99S FOG
6HR MIN TEMP:  68; 6HR MAX TEMP:  75; 6HR PCP: TRACE;

SEDALIA        CLOUDY    69  61  75 N13       30.04F HAZE
6HR MIN TEMP:  64; 6HR MAX TEMP:  69;

WHITEMAN AFB   DRIZZLE   68  60  76 N15       30.03S FOG
WARRENSBURG    CLOUDY    68  59  73 N8        30.04S HAZE
OSAGE BEACH    CLOUDY    66  64  94 N6        30.01S

$$
MOZ051-052-059>065-071900-
...EAST CENTRAL MISSOURI...

CITY           SKY/WX    TMP DP  RH WIND       PRES   REMARKS
ST LOUIS INTL  LGT RAIN  71  66  84 N8        30.00R
6HR MIN TEMP:  70; 6HR MAX TEMP:  76; 6HR PCP:  0.03;

SPIRIT OF STL  LGT RAIN  70  67  90 N9        29.99R FOG
6HR MIN TEMP:  69; 6HR MAX TEMP:  75; 6HR PCP:  0.03;

ST CHARLES     CLOUDY    69  65  86 N12       29.99R
6HR MIN TEMP:  69; 6HR MAX TEMP:  74; 6HR PCP:  0.04;


$$
MOZ072>076-082>087-097>100-106>115-071900-
...SOUTH CENTRAL AND SOUTHEAST MISSOURI...

CITY           SKY/WX    TMP DP  RH WIND       PRES   REMARKS
CAPE GIRARDEAU LGT RAIN  77  74  90 NW9       29.98S
6HR MIN TEMP:  77; 6HR MAX TEMP:  79; 6HR PCP:  0.19;

FARMINGTON     CLOUDY    75  73  94 SW6       30.02F
6HR MIN TEMP:  72; 6HR MAX TEMP:  75; 6HR PCP:  0.18;

POPLAR BLUFF   CLOUDY    83  75  77 SW12G22   29.95F HX  90
6HR MIN TEMP:  77; 6HR MAX TEMP:  83;

WEST PLAINS    LGT RAIN  73  70  90 W8        30.02S
6HR MIN TEMP:  72; 6HR MAX TEMP:  78; 6HR PCP:  0.66;


$$


USA.gov is the U.S. government's official web portal to all federal, state and local government web resources and services.